Tracking 19281 objects as of 16-Nov-2018
HD Live streaming from Space Station
objects crossing your sky now

COSMOS 1019

Track COSMOS 1019 now!
10-day predictions
COSMOS 1019 is classified as:


NORAD ID: 10936
Int'l Code: 1978-056G
Perigee: 1,431.0 km
Apogee: 1,494.6 km
Inclination: 74.0 °
Period: 115.0 minutes
Semi major axis: 7833 km
RCS: 0.6903 m2 (medium)
Launch date: June 7, 1978
Source: Commonwealth of Independent States (former USSR) (CIS)
Launch site: PLESETSK MISSILE AND SPACE COMPLEX (PKMTR)
aabbcc
Your satellite tracking list
Your tracking list is empty




NASA's NSSDC Master Catalog

Two Line Element Set (TLE):
1 10936U 78056G   18319.59551167 -.00000008 +00000-0 +49810-4 0  9991
2 10936 074.0261 328.1475 0040629 166.1223 306.4285 12.52113921848424
Source of the keplerian elements: AFSPC